Flag for Portugal Weather past 2 weeks in Vila Nova de Gaia, Portugal

Now
63 °F

Clear.


Feels Like: 63 °F
Forecast: N/A
Wind: 3 mph from North

Location: Porto / Pedras Rubras

Current Time: Oct 26, 2014 at 6:12:50 AM

Latest Report: Oct 26, 2014 at 5:30 AM


Visibility: 10 mi

Pressure: 30.09 "Hg

Humidity: 83%

Dew point: 57 °F

Location of Vila Nova de GaiaLocation

Historic Weather in Vila Nova de Gaia — Graph

°F

Vila Nova de Gaia temperature yesterday

Maximum temperature yesterday: 84 °F (at 2:00 PM)
Minimum temperature yesterday: 57 °F (at 6:30 AM)
Average temperature yesterday: 71 °F

Past Weeks' High & Low Weather Summary

 TemperatureHumidityPressure
High84 °F (Oct 19, 4:30 PM)100% (Oct 13, 1:00 AM)30.33 "Hg (Oct 13, 1:00 AM)
Low52 °F (Oct 14, 2:00 AM)39% (Oct 23, 12:30 PM)29.56 "Hg (Oct 12, 4:00 AM)
Average67 °F82%29.96 "Hg
* Reported Oct 11 5:00 AM — Oct 26 4:30 AM, Vila Nova de Gaia, Weather by CustomWeather, © 2014

Note: Actual official high and low records may vary slightly from our data, if they occured in-between our weather recording intervals... More about our weather records

Advertising

Vila Nova de Gaia weather history for previous 24 hours

 ConditionsComfort  
Time TempWeatherWind HumidityBarometerVisibility
4:30 AM
Oct 26
64 °FClear.8 mph78%30.07 "Hg10 mi
4:00 AM64 °FClear.8 mph78%30.07 "Hg10 mi
3:30 AM64 °FClear.8 mph78%30.07 "Hg10 mi
3:00 AM64 °FClear.9 mph78%30.09 "Hg10 mi
2:30 AM66 °FClear.9 mph78%30.09 "Hg10 mi
2:00 AM66 °FClear.7 mph78%30.09 "Hg10 mi
1:00 AM68 °FClear.2 mph73%30.09 "Hg10 mi
1:30 AM66 °FClear.7 mph78%30.09 "Hg10 mi
1:00 AM66 °FClear.8 mph78%30.09 "Hg10 mi
12:30 AM68 °FClear.7 mph73%30.09 "Hg10 mi
12:00 AM66 °FClear.8 mph78%30.09 "Hg10 mi
11:30 PM
Oct 25
70 °FClear.8 mph69%30.09 "Hg10 mi
11:00 PM70 °FClear.9 mph73%30.09 "Hg10 mi
10:00 PM68 °FPassing clouds.5 mph83%30.07 "HgN/A
9:30 PM68 °FClear.5 mph83%30.07 "Hg10 mi
9:00 PM66 °FClear.3 mph88%30.07 "Hg6 mi
8:30 PM68 °FClear.3 mph83%30.07 "Hg10 mi
8:00 PM68 °FClear.2 mph83%30.04 "Hg10 mi
7:30 PM70 °FSunny.2 mph83%30.04 "Hg10 mi
7:00 PM72 °FClear.2 mph78%30.04 "Hg5 mi
6:30 PM72 °FClear.1 mph78%30.04 "Hg6 mi
6:00 PM75 °FClear.3 mph74%30.04 "Hg5 mi
5:30 PM77 °FClear.3 mph65%30.04 "Hg4 mi
5:00 PM79 °FClear.2 mph65%30.04 "Hg4 mi
4:30 PM81 °FPassing clouds.3 mph58%30.04 "HgN/A
4:00 PM84 °FPassing clouds.3 mph43%30.04 "HgN/A
3:30 PM84 °FPassing clouds.6 mph43%30.04 "HgN/A
3:00 PM84 °FPassing clouds.5 mph40%30.04 "HgN/A
2:30 PM84 °FPassing clouds.7 mph43%30.04 "HgN/A
2:00 PM84 °FPassing clouds.8 mph40%30.04 "HgN/A
1:30 PM82 °FSunny.10 mph42%30.04 "Hg10 mi
1:00 PM82 °FPassing clouds.9 mph45%30.07 "HgN/A
12:30 PM81 °FSunny.12 mph45%30.07 "Hg10 mi
12:00 PM79 °FSunny.12 mph51%30.07 "Hg10 mi
11:30 AM77 °FSunny.10 mph54%30.07 "Hg10 mi
11:00 AM75 °FSunny.12 mph54%30.07 "Hg10 mi
10:30 AM73 °FSunny.12 mph57%30.04 "Hg10 mi
10:00 AM73 °FSunny.10 mph57%30.04 "Hg10 mi
9:30 AM72 °FSunny.10 mph57%30.04 "Hg10 mi
9:00 AM70 °FSunny.10 mph60%30.04 "Hg10 mi
8:30 AM70 °FPassing clouds.12 mph60%30.01 "HgN/A
8:00 AM66 °FPassing clouds.10 mph68%30.01 "HgN/A
7:30 AM59 °FPassing clouds.6 mph94%30.01 "HgN/A
7:00 AM57 °FClear.3 mph100%30.01 "Hg10 mi
6:30 AM57 °FPassing clouds.3 mph100%30.01 "HgN/A
6:00 AM61 °FClear.1 mph94%30.01 "Hg10 mi
Weather by CustomWeather, © 2014

See weather overviewHow to use our weather pages